This demonstration page uses our WeatherBlox Daily Observations layout. Learn more.

Left ArrowRight Arrow

38.89511, -77.03637

Hourly Observations for October 21, 2021

Temp ( °F °C ) Dew Point ( °F °C ) Humidity (%) Winds ( mph kmh ) Pressure ( in mb ) Visibility ( mi km ) Precip ( " mm )
12:52 am 00:52 Clear 59 15 54 12.2 83 83 SSW 5 7 30.08 1019 10 16 N/A
1:52 am 01:52 Clear 59 15 54 12.2 83 83 N N/A 30.08 1019 10 16 N/A
2:52 am 02:52 Clear 56 13.3 51 10.6 84 84 N N/A 30.08 1019 10 16 N/A
3:52 am 03:52 Clear 57 13.9 50 10 78 78 N N/A 30.07 1018 10 16 N/A
4:52 am 04:52 Clear 55 12.8 50 10 83 83 N N/A 30.07 1018 10 16 N/A
5:52 am 05:52 Partly Cloudy 55 12.8 50 10 83 83 N N/A 30.07 1018 10 16 N/A
6:52 am 06:52 Mostly Cloudy 53 11.7 49 9.4 86 86 SSW 6 9 30.08 1019 10 16 N/A
7:52 am 07:52 Mostly Cloudy 54 12.2 50 10 87 87 SW 5 7 30.08 1019 10 16 N/A
8:52 am 08:52 Mostly Cloudy 59 15 53 11.7 81 81 N N/A 30.07 1018 10 16 N/A
9:52 am 09:52 Partly Cloudy 61 16.1 54 12.2 78 78 SSE 6 9 30.07 1018 10 16 N/A
10:52 am 10:52 Partly Cloudy 64 17.8 54 12.2 70 70 S 6 9 30.06 1018 10 16 N/A
11:52 am 11:52 Mostly Sunny 67 19.4 54 12.2 63 63 S 5 7 30.04 1017 10 16 N/A
12:52 pm 12:52 Mostly Sunny 71 21.7 55 12.8 57 57 SSE 7 11 30.01 1016 10 16 N/A
1:52 pm 13:52 Mostly Sunny 73 22.8 52 11.1 48 48 S 7 11 29.97 1015 10 16 N/A
2:52 pm 14:52 Mostly Sunny 73 22.8 54 12.2 51 51 SSE 10 17 29.94 1014 10 16 N/A
3:52 pm 15:52 Mostly Sunny 74 23.3 51 10.6 45 45 SSW 10 17 29.91 1013 10 16 N/A
4:52 pm 16:52 Mostly Sunny 74 23.3 49 9.4 41 41 SSW 12 19 29.91 1013 10 16 N/A
5:52 pm 17:52 Mostly Sunny 70 21.1 55 12.8 59 59 S 6 9 29.90 1013 10 16 N/A
6:52 pm 18:52 Mostly Clear 70 21.1 54 12.2 57 57 S 9 15 29.88 1012 10 16 N/A
7:52 pm 19:52 Mostly Clear 67 19.4 56 13.3 68 68 S 9 15 29.88 1012 10 16 N/A
8:52 pm 20:52 Mostly Clear 68 20 56 13.3 65 65 SSW 12 19 29.87 1011 10 16 N/A
9:52 pm 21:52 Mostly Clear 69 20.6 54 12.2 59 59 SSW 12 19 29.87 1012 10 16 N/A
10:52 pm 22:52 Mostly Clear 67 19.4 55 12.8 66 66 SSW 10 17 29.86 1011 10 16 N/A
11:52 pm 23:52 Partly Cloudy 68 20 55 12.8 63 63 SSW 12 19 29.85 1011 10 16 N/A

Powered by AerisWeather